Sandpoint, ID

7:12 PM PST on February 20, 2017 (GMT -0800)
Sandpoint

Weather History for KSZT - February, 2014

Change the Weather History Date:

Monday, February 24, 2014

  Actual Average Record
Temperature  
Mean Temperature 24 °F -  
Max Temperature 26 °F 42 °F 46 °F (2015)
Min Temperature 23 °F 26 °F 23 °F (2014)
Degree Days  
Heating Degree Days 40    
Moisture  
Dew Point 14 °F    
Average Humidity 68    
Maximum Humidity 93    
Minimum Humidity 47    
Precipitation  
Precipitation 0.00 in - - ()
Sea Level Pressure  
Sea Level Pressure 30.21 in    
Wind  
Wind Speed 14 mph (NNE)    
Max Wind Speed 20 mph    
Max Gust Speed 28 mph    
Visibility 9 miles    
Events Snow    
Averages and records for this station are not official NWS values.
T = Trace of Precipitation, MM = Missing Value Source: NWS Daily Summary

Daily Weather History Graph

Daily Weather History Graph

Search for Another Location

Airport or City:

Trip Planner

Search our weather history database for the weather conditions in past years. The results will help you decide how hot, cold, wet, or windy it might be!

Date:

Astronomy

Feb. 24, 2014 Rise Set
Actual Time 6:36 AM PST 5:22 PM PST
Civil Twilight 6:05 AM PST 5:54 PM PST
Nautical Twilight 5:29 AM PST 6:30 PM PST
Astronomical Twilight 4:53 AM PST 7:06 PM PST
Moon 2:54 AM PST (2/24) 12:13 PM PST (2/24)
Length of Visible Light 11h 49m
Length of Day
10h 45m
Waning Crescent, 27% of the Moon is Illuminated
Feb 24
Waning Crescent
Mar 1
New
Mar 8
First Quarter
Mar 16
Full
Mar 23
Last Quarter

Hourly Weather History & Observations

Time (PST) Temp. Windchill Dew Point Humidity Pressure Visibility Wind Dir Wind Speed Gust Speed Precip Events Conditions
12:15 AM 23.0 °F 11.1 °F 15.8 °F 74% 30.07 in 10.0 mi NNE 12.7 mph - N/A   Overcast
12:35 AM 23.0 °F 11.7 °F 15.8 °F 74% 30.09 in 10.0 mi NNE 11.5 mph 16.1 mph N/A   Overcast
12:55 AM 23.0 °F 12.4 °F 15.8 °F 74% 30.10 in 10.0 mi NNE 10.4 mph - N/A   Overcast
1:15 AM 23.0 °F 10.6 °F 14.0 °F 68% 30.10 in 10.0 mi NNE 13.8 mph 19.6 mph N/A   Overcast
1:35 AM 23.0 °F 10.6 °F 14.0 °F 68% 30.11 in 10.0 mi NNE 13.8 mph - N/A   Overcast
1:55 AM 23.0 °F 10.6 °F 14.0 °F 68% 30.11 in 10.0 mi NNE 13.8 mph 21.9 mph N/A   Overcast
2:15 AM 24.8 °F 11.9 °F 14.0 °F 64% 30.12 in 10.0 mi NNE 16.1 mph 20.7 mph N/A   Overcast
2:35 AM 23.0 °F 9.6 °F 14.0 °F 68% 30.12 in 10.0 mi NNE 16.1 mph 20.7 mph N/A   Overcast
2:55 AM 23.0 °F 9.6 °F 14.0 °F 68% 30.13 in 10.0 mi NE 16.1 mph 20.7 mph N/A   Overcast
3:15 AM 23.0 °F 9.2 °F 12.2 °F 63% 30.14 in 10.0 mi NNE 17.3 mph - N/A   Overcast
3:35 AM 23.0 °F 10.1 °F 12.2 °F 63% 30.14 in 10.0 mi NNE 15.0 mph 20.7 mph N/A   Overcast
3:55 AM 23.0 °F 10.1 °F 12.2 °F 63% 30.15 in 10.0 mi NNE 15.0 mph 19.6 mph N/A   Overcast
4:15 AM 23.0 °F 10.6 °F 12.2 °F 63% 30.16 in 10.0 mi NNE 13.8 mph - N/A   Overcast
4:35 AM 23.0 °F 11.7 °F 12.2 °F 63% 30.17 in 10.0 mi NNE 11.5 mph 17.3 mph N/A   Overcast
4:55 AM 23.0 °F 11.7 °F 12.2 °F 63% 30.18 in 10.0 mi NNE 11.5 mph 18.4 mph N/A   Overcast
5:15 AM 23.0 °F 12.4 °F 12.2 °F 63% 30.19 in 10.0 mi NNE 10.4 mph 16.1 mph N/A   Overcast
5:35 AM 23.0 °F 13.1 °F 12.2 °F 63% 30.19 in 10.0 mi NNE 9.2 mph - N/A   Overcast
5:55 AM 23.0 °F 11.7 °F 10.4 °F 59% 30.20 in 10.0 mi NNE 11.5 mph - N/A   Overcast
6:15 AM 23.0 °F 11.1 °F 10.4 °F 59% 30.20 in 10.0 mi NNE 12.7 mph 20.7 mph N/A   Overcast
6:35 AM 23.0 °F 9.6 °F 10.4 °F 59% 30.21 in 10.0 mi NNE 16.1 mph 20.7 mph N/A   Overcast
6:55 AM 23.0 °F 8.3 °F 10.4 °F 59% 30.22 in 10.0 mi NNE 19.6 mph 26.5 mph N/A   Overcast
7:15 AM 23.0 °F 9.6 °F 10.4 °F 59% 30.22 in 10.0 mi NNE 16.1 mph 23.0 mph N/A   Overcast
7:35 AM 23.0 °F 9.6 °F 10.4 °F 59% 30.23 in 10.0 mi NNE 16.1 mph 23.0 mph N/A   Overcast
7:55 AM 23.0 °F 9.6 °F 10.4 °F 59% 30.23 in 10.0 mi NE 16.1 mph - N/A   Overcast
8:15 AM 23.0 °F 10.1 °F 10.4 °F 59% 30.24 in 10.0 mi NE 15.0 mph 21.9 mph N/A   Overcast
8:35 AM 23.0 °F 10.1 °F 10.4 °F 59% 30.25 in 10.0 mi NE 15.0 mph 24.2 mph N/A   Overcast
8:55 AM 23.0 °F 9.6 °F 10.4 °F 59% 30.25 in 10.0 mi NE 16.1 mph 19.6 mph N/A   Overcast
9:15 AM 24.8 °F 12.4 °F 10.4 °F 54% 30.25 in 10.0 mi NE 15.0 mph 20.7 mph N/A   Scattered Clouds
9:35 AM 24.8 °F 12.9 °F 10.4 °F 54% 30.26 in 10.0 mi NNE 13.8 mph 19.6 mph N/A   Clear
9:55 AM 24.8 °F 12.9 °F 10.4 °F 54% 30.26 in 10.0 mi NNE 13.8 mph 20.7 mph N/A   Scattered Clouds
10:15 AM 26.6 °F 14.7 °F 10.4 °F 51% 30.26 in 10.0 mi NE 15.0 mph 21.9 mph N/A   Mostly Cloudy
10:35 AM 26.6 °F 15.2 °F 10.4 °F 51% 30.26 in 10.0 mi NNE 13.8 mph - N/A   Overcast
10:55 AM 26.6 °F 13.4 °F 10.4 °F 51% 30.26 in 10.0 mi NNE 18.4 mph 21.9 mph N/A   Overcast
11:15 AM 26.6 °F 15.7 °F 10.4 °F 51% 30.26 in 10.0 mi NNE 12.7 mph 20.7 mph N/A   Overcast
11:35 AM 26.6 °F 15.7 °F 10.4 °F 51% 30.27 in 10.0 mi NNE 12.7 mph 21.9 mph N/A   Overcast
11:55 AM 26.6 °F 15.2 °F 10.4 °F 51% 30.26 in 10.0 mi NNE 13.8 mph 18.4 mph N/A   Overcast
12:15 PM 26.6 °F 15.2 °F 8.6 °F 47% 30.26 in 10.0 mi NNE 13.8 mph - N/A   Overcast
12:35 PM 26.6 °F 15.2 °F 10.4 °F 51% 30.25 in 10.0 mi NE 13.8 mph 20.7 mph N/A   Overcast
12:55 PM 26.6 °F 15.2 °F 10.4 °F 51% 30.24 in 10.0 mi NE 13.8 mph 21.9 mph N/A   Overcast
1:15 PM 26.6 °F 13.1 °F 10.4 °F 51% 30.24 in 10.0 mi NE 19.6 mph 24.2 mph N/A   Overcast
1:35 PM 26.6 °F 13.8 °F 12.2 °F 55% 30.23 in 10.0 mi NE 17.3 mph 24.2 mph N/A   Overcast
1:55 PM 26.6 °F 13.1 °F 12.2 °F 55% 30.23 in 10.0 mi NE 19.6 mph 25.3 mph N/A   Overcast
2:15 PM 26.6 °F 13.4 °F 14.0 °F 59% 30.23 in 10.0 mi NNE 18.4 mph 26.5 mph N/A   Overcast
2:35 PM 24.8 °F 11.1 °F 14.0 °F 64% 30.23 in 7.0 mi NNE 18.4 mph - N/A   Overcast
2:55 PM 24.8 °F 11.5 °F 15.8 °F 69% 30.22 in 10.0 mi NNE 17.3 mph 24.2 mph N/A   Overcast
3:15 PM 24.8 °F 11.9 °F 15.8 °F 69% 30.22 in 7.0 mi NNE 16.1 mph 23.0 mph N/A   Overcast
3:35 PM 23.0 °F 9.2 °F 17.6 °F 80% 30.21 in 3.0 mi NNE 17.3 mph 23.0 mph N/A Snow Light Snow
3:55 PM 23.0 °F 9.2 °F 17.6 °F 80% 30.21 in 3.0 mi NNE 17.3 mph 23.0 mph N/A Snow Light Snow
4:15 PM 23.0 °F 8.3 °F 19.4 °F 86% 30.21 in 4.0 mi NNE 19.6 mph 26.5 mph N/A Snow Light Snow
4:35 PM 23.0 °F 8.3 °F 19.4 °F 86% 30.21 in 2.5 mi NE 19.6 mph 27.6 mph N/A Snow Light Snow
4:55 PM 23.0 °F 9.2 °F 19.4 °F 86% 30.20 in 3.0 mi NE 17.3 mph - N/A Snow Light Snow
5:15 PM 23.0 °F 10.1 °F 21.2 °F 93% 30.20 in 2.5 mi NE 15.0 mph - N/A Snow Light Snow
5:35 PM 23.0 °F 11.1 °F 19.4 °F 86% 30.21 in 3.0 mi NE 12.7 mph 19.6 mph N/A Snow Light Snow
5:55 PM 23.0 °F 11.1 °F 21.2 °F 93% 30.20 in 5.0 mi NE 12.7 mph 18.4 mph N/A Snow Light Snow
6:15 PM 23.0 °F 11.7 °F 21.2 °F 93% 30.21 in 4.0 mi NE 11.5 mph 16.1 mph N/A Snow Light Snow
6:35 PM 23.0 °F 12.4 °F 19.4 °F 86% 30.21 in 7.0 mi NE 10.4 mph - N/A   Overcast
6:55 PM 23.0 °F 12.4 °F 19.4 °F 86% 30.21 in 7.0 mi NNE 10.4 mph - N/A   Overcast
7:15 PM 23.0 °F 13.9 °F 19.4 °F 86% 30.21 in 7.0 mi NNE 8.1 mph - N/A   Overcast
7:35 PM 23.0 °F 13.1 °F 21.2 °F 93% 30.21 in 7.0 mi NNE 9.2 mph - N/A   Overcast
7:55 PM 23.0 °F 12.4 °F 21.2 °F 93% 30.21 in 7.0 mi NNE 10.4 mph - N/A Snow Light Snow
8:15 PM 23.0 °F 11.7 °F 19.4 °F 86% 30.21 in 5.0 mi NNE 11.5 mph - N/A Snow Light Snow
8:35 PM 23.0 °F 11.7 °F 19.4 °F 86% 30.21 in 10.0 mi NE 11.5 mph 18.4 mph N/A   Overcast
8:55 PM 23.0 °F 12.4 °F 19.4 °F 86% 30.22 in 10.0 mi NNE 10.4 mph - N/A   Overcast
9:15 PM 24.8 °F 13.4 °F 19.4 °F 80% 30.22 in 10.0 mi NE 12.7 mph - N/A   Overcast
9:35 PM 26.6 °F 15.2 °F 19.4 °F 74% 30.23 in 10.0 mi NE 13.8 mph - N/A   Overcast
9:50 PM 26.6 °F 15.7 °F 19.4 °F 74% 30.23 in 10.0 mi NE 12.7 mph 18.4 mph N/A   Overcast
10:15 PM 24.8 °F 13.4 °F 17.6 °F 74% 30.23 in 10.0 mi NNE 12.7 mph - N/A   Scattered Clouds
10:35 PM 24.8 °F 13.4 °F 15.8 °F 69% 30.24 in 10.0 mi NNE 12.7 mph - N/A   Scattered Clouds
10:55 PM 24.8 °F 12.9 °F 14.0 °F 64% 30.24 in 10.0 mi NNE 13.8 mph 20.7 mph N/A   Mostly Cloudy
11:15 PM 24.8 °F 11.9 °F 14.0 °F 64% 30.24 in 10.0 mi NNE 16.1 mph 20.7 mph N/A   Overcast
11:30 PM 24.8 °F 11.5 °F 14.0 °F 64% 30.24 in 10.0 mi NNE 17.3 mph 23.0 mph N/A   Overcast
11:55 PM 24.8 °F 13.4 °F 12.2 °F 59% 30.24 in 10.0 mi NNE 12.7 mph 17.3 mph N/A   Scattered Clouds